Вернуться в каталог

STARLINK-31331

АктивенСвязьVLEO
NORAD 58946·PAYLOAD·🇺🇸 United States

Запущен Feb 10, 2024 с Vandenberg Space Force Base

Loading…

Ближайшие Пролёты (ближайшие 24 часа)

TLE

СвежийSource: CelesTrak SupGP

Эпоха: Sep 14, 2026, 21:31 UTC

1 58946C 24027R   26257.89701389 -.00051493  00000+0 -16557-2 0  2570
2 58946  53.1570 149.2891 0001351  89.4086  59.0526 15.31730035    10

Отслеживайте STARLINK-31331 в реальном времени с AllMySat

Download on the App Store